Redwood Falls, MN

12:16 AM CDT on September 22, 2017 (GMT -0500)
Redwood Falls Municipal

Weather History for KRWF - October, 2013

Change the Weather History Date:

Wednesday, October 30, 2013

  Actual Average Record
Temperature  
Mean Temperature 42 °F -  
Max Temperature 46 °F 52 °F 86 °F (1950)
Min Temperature 37 °F 34 °F 16 °F (1988)
Degree Days  
Heating Degree Days 24    
Moisture  
Dew Point 41 °F    
Average Humidity 97    
Maximum Humidity 100    
Minimum Humidity 93    
Precipitation  
Precipitation 0.03 in - - ()
Sea Level Pressure  
Sea Level Pressure 29.90 in    
Wind  
Wind Speed 4 mph (North)    
Max Wind Speed 9 mph    
Max Gust Speed -    
Visibility 4 miles    
Events Fog    
Averages and records for this station are not official NWS values.
T = Trace of Precipitation, MM = Missing Value Source: NWS Daily Summary

Daily Weather History Graph

Daily Weather History Graph

Search for Another Location

Airport or City:

Trip Planner

Search our weather history database for the weather conditions in past years. The results will help you decide how hot, cold, wet, or windy it might be!

Date:

Astronomy

Oct. 30, 2013 Rise Set
Actual Time 7:55 AM CDT 6:11 PM CDT
Civil Twilight 7:25 AM CDT 6:41 PM CDT
Nautical Twilight 6:50 AM CDT 7:16 PM CDT
Astronomical Twilight 6:17 AM CDT 7:50 PM CDT
Moon 3:35 AM CDT (10/30) 4:05 PM CDT (10/30)
Length of Visible Light 11h 16m
Length of Day
10h 16m
Waning Crescent, 17% of the Moon is Illuminated
Oct 30
Waning Crescent
Nov 3
New
Nov 9
First Quarter
Nov 17
Full
Nov 25
Last Quarter

Hourly Weather History & Observations

Time (CDT) Temp. Windchill Dew Point Humidity Pressure Visibility Wind Dir Wind Speed Gust Speed Precip Events Conditions
12:11 AM 37.4 °F 32.8 °F 35.6 °F 93% 30.05 in 8.0 mi ENE 5.8 mph - N/A   Overcast
12:53 AM 39.0 °F 36.8 °F 37.0 °F 93% 30.07 in 9.0 mi ENE 3.5 mph - N/A   Overcast
1:14 AM 39.2 °F 35.9 °F 37.4 °F 93% 30.04 in 9.0 mi ENE 4.6 mph - N/A   Overcast
1:37 AM 39.2 °F - 37.4 °F 93% 30.04 in 9.0 mi Calm Calm - N/A   Overcast
1:53 AM 39.0 °F - 37.0 °F 93% 30.07 in 8.0 mi Calm Calm - N/A   Overcast
2:26 AM 39.2 °F 37.0 °F 37.4 °F 93% 30.03 in 8.0 mi NE 3.5 mph - N/A   Overcast
2:50 AM 39.2 °F 37.0 °F 37.4 °F 93% 30.02 in 8.0 mi NE 3.5 mph - N/A   Overcast
2:53 AM 39.0 °F 35.7 °F 37.0 °F 93% 30.05 in 8.0 mi NE 4.6 mph - N/A   Overcast
3:53 AM 39.0 °F 35.7 °F 37.0 °F 93% 30.03 in 6.0 mi ENE 4.6 mph - N/A   Overcast
4:10 AM 39.2 °F 35.9 °F 37.4 °F 93% 30.00 in 6.0 mi ENE 4.6 mph - N/A   Overcast
4:53 AM 39.0 °F 36.8 °F 37.9 °F 96% 30.01 in 4.0 mi NE 3.5 mph - N/A   Overcast
5:53 AM 39.9 °F 37.8 °F 37.9 °F 93% 30.01 in 4.0 mi North 3.5 mph - N/A   Overcast
6:36 AM 39.2 °F 37.0 °F 37.4 °F 93% 29.97 in 2.5 mi NNE 3.5 mph - 0.00 in   Overcast
6:53 AM 39.9 °F 36.7 °F 37.9 °F 93% 29.99 in 2.5 mi NNE 4.6 mph - 0.00 in   Overcast
7:09 AM 39.2 °F 37.0 °F 39.2 °F 100% 29.96 in 2.5 mi NNE 3.5 mph - N/A   Overcast
7:53 AM 39.0 °F 35.7 °F 39.0 °F 100% 29.96 in 2.5 mi ENE 4.6 mph - N/A   Overcast
8:09 AM 39.2 °F - 39.2 °F 100% 29.95 in 3.0 mi Calm Calm - N/A   Overcast
8:28 AM 39.2 °F - 39.2 °F 100% 29.95 in 2.5 mi Calm Calm - N/A   Overcast
8:49 AM 39.2 °F - 39.2 °F 100% 29.97 in 1.0 mi Calm Calm - N/A   Overcast
8:53 AM 39.9 °F - 39.0 °F 97% 30.00 in 0.8 mi Calm Calm - N/A   Overcast
9:53 AM 41.0 °F - 39.9 °F 96% 29.99 in 0.5 mi Calm Calm - 0.01 in Fog Fog
10:53 AM 42.1 °F 38.4 °F 42.1 °F 100% 29.86 in 0.5 mi NE 5.8 mph - N/A Fog Fog
11:09 AM 42.8 °F 40.1 °F 42.8 °F 100% 29.84 in 1.0 mi Variable 4.6 mph - N/A   Overcast
11:53 AM 45.0 °F 43.5 °F 44.1 °F 97% 29.90 in 1.5 mi SE 3.5 mph - N/A   Overcast
12:53 PM 46.0 °F 44.8 °F 45.0 °F 96% 29.90 in 1.2 mi South 3.5 mph - N/A   Overcast
1:30 PM 46.4 °F 45.2 °F 46.4 °F 100% 29.86 in 0.8 mi SSW 3.5 mph - N/A   Overcast
1:53 PM 46.9 °F - 46.0 °F 97% 29.86 in 0.8 mi Calm Calm - N/A   Overcast
2:53 PM 46.9 °F - 46.0 °F 97% 29.83 in 0.2 mi Calm Calm - N/A Fog Fog
3:53 PM 46.0 °F 43.9 °F 46.0 °F 100% 29.79 in 0.2 mi NNW 4.6 mph - N/A Fog Fog
4:53 PM 46.9 °F - 46.0 °F 97% 29.80 in 0.2 mi Calm Calm - N/A Fog Fog
5:53 PM 46.9 °F - 46.0 °F 97% 29.77 in 0.2 mi Calm Calm - N/A Fog Fog
6:53 PM 46.0 °F 41.9 °F 46.0 °F 100% 29.78 in 0.2 mi West 8.1 mph - 0.01 in Fog Fog
7:53 PM 44.1 °F 39.0 °F 44.1 °F 100% 29.77 in 1.2 mi WNW 9.2 mph - N/A   Overcast
8:06 PM 44.6 °F 40.2 °F 44.6 °F 100% 29.74 in 3.0 mi WNW 8.1 mph - N/A   Overcast
8:14 PM 44.6 °F 41.4 °F 44.6 °F 100% 29.74 in 4.0 mi WNW 5.8 mph - N/A   Overcast
8:46 PM 44.6 °F 40.2 °F 42.8 °F 93% 29.74 in 4.0 mi WNW 8.1 mph - N/A   Overcast
8:53 PM 44.1 °F 40.8 °F 43.0 °F 96% 29.76 in 4.0 mi WNW 5.8 mph - N/A   Overcast
9:53 PM 43.0 °F 38.2 °F 42.1 °F 97% 29.75 in 4.0 mi WNW 8.1 mph - N/A   Overcast
10:46 PM 42.8 °F 40.1 °F 42.8 °F 100% 29.71 in 7.0 mi WNW 4.6 mph - 0.01 in   Overcast
10:53 PM 42.1 °F 38.4 °F 42.1 °F 100% 29.73 in 6.0 mi West 5.8 mph - 0.01 in   Overcast
11:53 PM 42.1 °F 37.1 °F 41.0 °F 96% 29.73 in 10.0 mi West 8.1 mph - N/A   Overcast